Midland, MI

3:47 AM EDT on October 21, 2017 (GMT -0400)
Barstow

Weather History for KIKW - October, 2011

Change the Weather History Date:

Tuesday, October 11, 2011

  Actual Average (KMBS) Record (KMBS)
Temperature  
Mean Temperature 64 °F -  
Max Temperature 81 °F 60 °F 80 °F (2011)
Min Temperature 47 °F 39 °F 28 °F (1996)
Degree Days  
Heating Degree Days 1    
Growing Degree Days 14 (Base 50)    
Moisture  
Dew Point 50 °F    
Average Humidity 73    
Maximum Humidity 99    
Minimum Humidity 26    
Precipitation  
Precipitation 0.00 in - - ()
Sea Level Pressure  
Sea Level Pressure 30.06 in    
Wind  
Wind Speed 1 mph (ESE)    
Max Wind Speed 10 mph    
Max Gust Speed 16 mph    
Visibility 9 miles    
Events Fog    
Averages and records for this station are not official NWS values.
T = Trace of Precipitation, MM = Missing Value Source: NWS Daily Summary

Daily Weather History Graph

Daily Weather History Graph

Search for Another Location

Airport or City:

Trip Planner

Search our weather history database for the weather conditions in past years. The results will help you decide how hot, cold, wet, or windy it might be!

Date:

Astronomy

Oct. 11, 2011 Rise Set
Actual Time 7:46 AM EDT 7:00 PM EDT
Civil Twilight 7:17 AM EDT 7:29 PM EDT
Nautical Twilight 6:44 AM EDT 8:02 PM EDT
Astronomical Twilight 6:10 AM EDT 8:35 PM EDT
Moon 6:30 PM EDT (10/11) 7:24 AM EDT (10/11)
Length of Visible Light 12h 12m
Length of Day
11h 14m
Full, 100% of the Moon is Illuminated
Oct 11
Full
Oct 11
Full
Oct 19
Last Quarter
Oct 26
New
Nov 2
First Quarter

Hourly Weather History & Observations

Time (EDT) Temp. Dew Point Humidity Pressure Visibility Wind Dir Wind Speed Gust Speed Precip Events Conditions
12:11 AM 62.1 °F 52.2 °F 70% 30.14 in 10.0 mi Calm Calm - N/A   Clear
12:32 AM 55.8 °F 50.9 °F 84% 30.14 in 10.0 mi Calm Calm - N/A   Clear
12:51 AM 55.0 °F 50.9 °F 86% 30.13 in 10.0 mi Calm Calm - N/A   Clear
1:11 AM 57.2 °F 51.1 °F 80% 30.13 in 10.0 mi Calm Calm - N/A   Clear
1:32 AM 54.9 °F 50.7 °F 86% 30.13 in 10.0 mi Calm Calm - N/A   Clear
1:51 AM 54.9 °F 52.5 °F 92% 30.13 in 10.0 mi Calm Calm - N/A   Clear
2:11 AM 52.0 °F 50.7 °F 95% 30.12 in 10.0 mi Calm Calm - N/A   Clear
2:32 AM 51.8 °F 50.7 °F 96% 30.12 in 10.0 mi Calm Calm - N/A   Clear
2:51 AM 51.8 °F 50.9 °F 97% 30.12 in 10.0 mi Calm Calm - N/A   Clear
3:11 AM 50.0 °F 49.3 °F 97% 30.12 in 5.0 mi Calm Calm - N/A   Clear
3:32 AM 50.0 °F 49.6 °F 99% 30.11 in 7.0 mi Calm Calm - N/A   Clear
3:51 AM 49.6 °F 49.3 °F 99% 30.11 in 7.0 mi Calm Calm - N/A   Clear
4:11 AM 50.2 °F 49.8 °F 99% 30.11 in 10.0 mi Calm Calm - N/A   Clear
4:32 AM 50.2 °F 49.5 °F 97% 30.11 in 7.0 mi Calm Calm - N/A   Clear
5:11 AM 50.0 °F 49.3 °F 97% 30.11 in 7.0 mi Calm Calm - N/A   Clear
5:32 AM 49.8 °F 49.1 °F 97% 30.12 in 7.0 mi Calm Calm - N/A   Clear
6:11 AM 49.5 °F 49.1 °F 99% 30.11 in 7.0 mi Calm Calm - N/A   Clear
6:32 AM 50.0 °F 49.5 °F 98% 30.11 in 7.0 mi Calm Calm - N/A   Clear
6:51 AM 48.7 °F 48.4 °F 99% 30.12 in 5.0 mi Calm Calm - N/A   Clear
7:11 AM 47.7 °F 47.3 °F 99% 30.12 in 3.0 mi Calm Calm - N/A   Clear
7:32 AM 47.3 °F 46.9 °F 99% 30.12 in 0.2 mi Calm Calm - N/A Fog Fog
7:51 AM 47.1 °F 46.8 °F 99% 30.12 in 0.2 mi Calm Calm - N/A Fog Fog
8:32 AM 47.7 °F 47.3 °F 99% 30.12 in 2.0 mi Calm Calm - N/A   Clear
8:51 AM 50.4 °F 50.2 °F 99% 30.12 in 5.0 mi Calm Calm - N/A   Clear
9:11 AM 55.8 °F 55.2 °F 98% 30.12 in 10.0 mi Calm Calm - N/A   Clear
9:32 AM 57.7 °F 54.0 °F 87% 30.11 in 10.0 mi Calm Calm - N/A   Clear
9:51 AM 58.1 °F 54.5 °F 88% 30.11 in 10.0 mi ENE 4.6 mph - N/A   Clear
10:11 AM 59.0 °F 54.3 °F 84% 30.11 in 10.0 mi East 3.5 mph - N/A   Clear
10:51 AM 63.3 °F 55.6 °F 76% 30.10 in 10.0 mi Calm Calm - N/A   Clear
11:32 AM 67.5 °F 55.2 °F 65% 30.09 in 10.0 mi SSE 3.5 mph - N/A   Clear
11:51 AM 68.0 °F 55.0 °F 63% 30.09 in 10.0 mi Calm Calm - N/A   Clear
12:31 PM - - N/A% - - North - - N/A   Unknown
12:52 PM - - N/A% 30.07 in 10.0 mi North - - N/A   Clear
1:14 PM - - N/A% 30.07 in - Calm Calm - N/A   Unknown
1:34 PM 73.9 °F 52.5 °F 47% 30.06 in 10.0 mi South 3.5 mph - N/A   Clear
1:53 PM 75.6 °F 52.5 °F 45% 30.05 in 10.0 mi Calm Calm - N/A   Clear
2:14 PM 77.0 °F 52.0 °F 42% 30.04 in - Calm Calm - N/A   Unknown
2:34 PM 77.5 °F 52.3 °F 41% 30.04 in 5.0 mi ESE 4.6 mph - N/A   Haze
2:53 PM 78.3 °F 51.3 °F 39% 30.03 in 10.0 mi SSE 4.6 mph - N/A   Clear
3:14 PM 78.8 °F 46.8 °F 32% 30.02 in 7.0 mi SE 4.6 mph - N/A   Clear
3:33 PM 79.9 °F 46.2 °F 30% 30.01 in 10.0 mi SSE 10.4 mph - N/A   Clear
4:14 PM 79.7 °F 45.5 °F 30% 30.00 in 10.0 mi SSE 9.2 mph 16.1 mph N/A   Clear
4:34 PM 79.2 °F 45.3 °F 30% 30.00 in 10.0 mi SE 5.8 mph 10.4 mph N/A   Clear
4:54 PM 79.7 °F 48.7 °F 34% 30.00 in 7.0 mi East 8.1 mph - N/A   Clear
5:13 PM 81.0 °F 43.2 °F 26% 29.99 in 10.0 mi SSE 10.4 mph - N/A   Clear
5:34 PM 79.7 °F 43.5 °F 28% 29.99 in 10.0 mi SE 10.4 mph - N/A   Clear
5:54 PM 78.4 °F 45.0 °F 30% 29.99 in 10.0 mi SE 6.9 mph - N/A   Clear
6:14 PM 76.6 °F 49.8 °F 39% 29.99 in 10.0 mi SE 4.6 mph - N/A   Clear
6:34 PM 76.5 °F 45.7 °F 33% 29.99 in 10.0 mi ESE 3.5 mph - N/A   Clear
6:53 PM 70.2 °F 52.5 °F 53% 29.99 in 10.0 mi East 8.1 mph - N/A   Clear
7:14 PM 67.5 °F 52.2 °F 58% 29.99 in 10.0 mi East 5.8 mph - N/A   Clear
7:34 PM 65.5 °F 52.7 °F 63% 30.00 in 10.0 mi East 3.5 mph - N/A   Clear
7:54 PM 61.7 °F 52.3 °F 71% 30.00 in 10.0 mi East 5.8 mph - N/A   Clear
8:14 PM 62.6 °F 52.7 °F 70% 30.00 in 10.0 mi ENE 4.6 mph - N/A   Clear
8:34 PM 59.5 °F 51.8 °F 76% 30.00 in 10.0 mi ENE 4.6 mph - N/A   Clear
8:53 PM 57.2 °F 50.5 °F 78% 30.00 in 10.0 mi ENE 4.6 mph - N/A   Clear
9:14 PM 56.8 °F 50.4 °F 79% 30.00 in 10.0 mi East 4.6 mph - N/A   Clear
9:34 PM 59.2 °F 49.6 °F 71% 30.00 in 10.0 mi East 3.5 mph - N/A   Clear
9:54 PM 57.6 °F 49.1 °F 73% 30.00 in 10.0 mi East 4.6 mph - N/A   Clear
10:14 PM 55.8 °F 49.3 °F 79% 30.00 in 10.0 mi Calm Calm - N/A   Clear
10:34 PM 54.7 °F 49.5 °F 83% 30.00 in 10.0 mi Calm Calm - N/A   Clear
10:53 PM 53.2 °F 48.0 °F 82% 30.00 in 10.0 mi Calm Calm - N/A   Clear
11:14 PM 52.5 °F 49.3 °F 89% 30.00 in 10.0 mi Calm Calm - N/A   Clear
11:34 PM 51.6 °F 47.7 °F 86% 30.00 in 10.0 mi Calm Calm - N/A   Clear
11:53 PM 52.7 °F 48.0 °F 84% 30.00 in 10.0 mi Calm Calm - N/A   Clear